WATO2: N. Canadian R., Watonga, OK

Data processed at Wed Mar 27 2019 23:44


All information presented herein is the property of the government of the United States of America and may be revised or deleted at any time without prior notice.
Dissemination of this information without the expressed written consent of the Public Affairs Office, Tulsa District U.S. Army Corps of Engineers is strictly prohibited.
These data are gathered electronically and, as presented, have not undergone any form of quality control. These data are not guaranteed to be valid or correct.
Go to home page.
Go to station list.
Go to home page.

Upstream stations:

Downstream station:
Previous Day
Next Day
Current Day
    
SHEF ID:       WATO2     North Canadian River blw Weavers
STATION TYPE:  
Regulating: Stage =    13.00, Flow =     1109

               PRECIP     STAGE  RIV-FLOW  BAT-LOAD
                   in        ft       cfs      volt
              Ccp-Rev   Ccp-Rev   Ccp-Rev   Ccp-Rev
(US/Central)
03/27 00:00      0.00     10.15       397     12.73
03/27 01:00      0.00     10.16       399     12.65
03/27 02:00      0.00     10.16       399     12.65
03/27 03:00      0.00     10.15       397     12.65
03/27 04:00      0.00     10.16       411     12.65
03/27 05:00      0.00     10.15       409     12.57
03/27 06:00      0.00     10.17       413     12.57
03/27 07:00      0.00     10.15       409     12.57
03/27 08:00      0.00     10.15       409     12.57
03/27 09:00      0.00     10.15       409     12.57
03/27 10:00      0.00     10.17       413     12.65
03/27 11:00      0.00     10.17       413     12.97
03/27 12:00      0.00     10.17       413     13.21
03/27 13:00      0.00     10.17       413     13.37
03/27 14:00      0.00     10.18       415     13.44
03/27 15:00      0.00     10.18       415     13.44
03/27 16:00      0.00     10.17       413     13.44
03/27 17:00      0.00     10.17       413     13.44
03/27 18:00      0.00     10.17       413     13.44
03/27 19:00      0.00     10.17       413     13.44
03/27 20:00      0.00     10.17       413     12.97
03/27 21:00      0.00     10.18       415     12.81
03/27 22:00      0.00     10.18       415     12.73
03/27 23:00      0.00     10.19       417     12.73